FW4758 Weather Reports


time (UTC)temp
C
wind
direction
speed
KPH
gust
KPH
rain 1hr
cm
rain 24hr
cm
rain mn
cm
humidity
%
barometer
mb
20260904221553 36 194 6.4 16.1 0.00 0.56 0.56 40 1009.0
20260904220053 35 150 9.7 17.7 0.00 0.56 0.56 42 1009.0
20260904214551 35 107 8.0 22.5 0.00 0.56 0.56 43 1009.1
20260904213050 36 133 11.3 24.1 0.00 0.56 0.56 41 1009.3
20260904211547 35 171 9.7 20.9 0.00 0.56 0.56 43 1009.4
20260904210047 36 229 6.4 17.7 0.00 0.56 0.56 44 1009.6
20260904204544 34 97 6.4 17.7 0.00 0.56 0.56 46 1009.9
20260904203043 35 167 6.4 19.3 0.00 0.56 0.56 45 1010.1
20260904201540 35 184 9.7 22.5 0.00 0.56 0.56 47 1010.2
20260904200051 35 155 9.7 20.9 0.00 0.56 0.56 47 1010.6
20260904194536 34 165 9.7 25.7 0.00 0.56 0.56 47 1010.9
20260904193038 33 190 12.9 24.1 0.00 0.56 0.56 50 1011.0
20260904191539 33 119 9.7 20.9 0.00 0.56 0.56 50 1011.2
20260904190034 33 118 9.7 22.5 0.00 0.56 0.56 48 1011.3
20260904184532 33 203 12.9 22.5 0.00 0.56 0.56 48 1011.5
20260904183036 33 120 9.7 22.5 0.00 0.56 0.56 49 1011.7
20260904181537 33 204 6.4 14.5 0.00 0.56 0.56 50 1011.8
20260904180028 33 360 8.0 20.9 0.00 0.56 0.56 49 1012.1
20260904174531 33 166 9.7 19.3 0.00 0.56 0.56 52 1012.1
20260904173024 32 191 8.0 17.7 0.00 0.56 0.56 55 1012.3
20260904171521 31 163 11.3 24.1 0.00 0.56 0.56 59 1012.5
20260904170019 31 189 11.3 22.5 0.00 0.56 0.56 57 1012.7
20260904164517 31 159 11.3 19.3 0.00 0.56 0.56 61 1012.7
20260904163013 30 186 8.0 22.5 0.00 0.56 0.56 64 1012.9
20260904161510 30 191 11.3 19.3 0.00 0.56 0.56 66 1013.0
20260904160007 29 214 8.0 17.7 0.00 0.56 0.56 71 1012.8
20260904154504 28 209 14.5 20.9 0.00 0.56 0.56 74 1012.8
20260904153002 28 222 12.9 22.5 0.00 0.56 0.56 77 1012.8
20260904144547 26 126 8.0 16.1 0.00 0.56 0.56 87 1012.8
20260904143043 25 146 8.0 12.9 0.00 0.56 0.56 87 1012.8
20260904141541 25 161 3.2 16.1 0.00 0.56 0.56 87 1012.8
20260904140042 25 154 6.4 12.9 0.00 0.56 0.56 87 1012.7
20260904134539 25 117 6.4 14.5 0.00 0.56 0.56 87 1012.5
20260904133045 25 166 6.4 11.3 0.00 0.56 0.56 87 1012.5
20260904131542 25 83 6.4 9.7 0.00 0.56 0.56 86 1012.2
20260904130036 24 115 4.8 12.9 0.00 0.56 0.56 86 1012.1
20260904124533 24 123 6.4 12.9 0.00 0.56 0.56 86 1011.9
20260904123031 24 142 4.8 9.7 0.00 0.56 0.56 86 1011.7
20260904121529 24 132 4.8 11.3 0.00 0.56 0.56 86 1011.6
20260904120029 24 98 8.0 12.9 0.00 0.56 0.56 86 1011.4
20260904114529 24 113 8.0 12.9 0.00 0.56 0.56 86 1011.4
20260904113039 24 151 4.8 8.0 0.00 0.56 0.56 86 1011.3
20260904111536 24 125 4.8 8.0 0.00 0.56 0.56 86 1011.2
20260904110027 24 121 3.2 9.7 0.00 0.56 0.56 86 1011.1
20260904104527 24 140 4.8 8.0 0.00 0.56 0.56 86 1011.0
20260904103026 24 139 3.2 9.7 0.00 0.56 0.56 86 1011.1
20260904101525 24 162 4.8 8.0 0.00 0.56 0.56 86 1011.0
20260904100029 24 146 4.8 9.7 0.00 0.56 0.56 86 1010.9
20260904094533 24 121 6.4 11.3 0.00 0.56 0.56 86 1010.9
20260904093023 24 156 4.8 11.3 0.00 0.56 0.56 86 1010.7
20260904091523 24 132 6.4 12.9 0.00 0.56 0.56 86 1010.8
20260904090023 24 138 6.4 12.9 0.00 0.56 0.56 86 1010.8
20260904084524 24 131 3.2 8.0 0.00 0.56 0.56 87 1010.8
20260904083035 24 179 4.8 14.5 0.00 0.56 0.56 87 1010.7
20260904081520 24 181 9.7 17.7 0.00 0.56 0.56 86 1010.6
20260904080024 24 136 9.7 19.3 0.00 0.56 0.56 87 1010.8
20260904074518 24 174 8.0 16.1 0.00 0.56 0.56 86 1010.8
20260904073022 24 157 4.8 12.9 0.00 0.56 0.56 86 1011.0
20260904071517 24 174 6.4 11.3 0.00 0.56 0.56 86 1011.0
20260904070017 23 122 8.0 16.1 0.00 0.56 0.56 86 1011.0
20260904064516 23 160 8.0 14.5 0.00 0.56 0.56 87 1011.0
20260904063015 23 139 8.0 14.5 0.08 0.56 0.56 87 1011.2
20260904061514 23 121 8.0 14.5 0.56 0.56 0.56 87 1011.2
20260904060017 23 140 6.4 12.9 0.56 0.56 0.56 87 1011.5
20260904054532 23 183 4.8 14.5 0.56 0.56 0.56 87 1011.3
20260904053015 24 196 11.3 17.7 0.46 0.46 0.46 86 1011.2
20260904051512 25 128 6.4 14.5 0.00 0.00 0.00 82 1011.6
20260904050010 25 138 8.0 20.9 0.00 0.00 0.00 81 1011.2
20260904044505 25 124 14.5 25.7 0.00 0.00 0.00 80 1010.9
20260904043004 25 112 14.5 25.7 0.00 0.00 0.00 79 1010.9
20260904041501 26 143 14.5 24.1 0.00 0.00 0.00 77 1011.0
20260904040004 26 103 14.5 25.7 0.00 0.00 0.00 76 1011.0
20260904034501 26 101 11.3 22.5 0.00 0.00 0.00 76 1011.1
20260904033003 26 115 17.7 25.7 0.00 0.00 0.00 75 1011.0
20260904031605 26 119 16.1 22.5 0.00 0.00 0.00 74 1010.8
20260904030101 26 111 14.5 24.1 0.00 0.00 0.00 73 1010.7
20260904024602 26 123 17.7 25.7 0.00 0.00 0.00 73 1010.6
20260904023105 26 120 11.3 25.7 0.00 0.00 0.00 72 1010.4
20260904021558 26 94 12.9 24.1 0.00 0.00 0.00 72 1010.2
20260904014618 25 98 14.5 20.9 0.00 0.00 0.00 86 1009.6
20260904013118 25 116 12.9 27.4 0.00 0.00 0.00 86 1009.5
20260904011556 25 139 9.7 24.1 0.00 0.00 0.00 86 1009.2
20260904010113 24 103 11.3 24.1 0.00 0.00 0.00 86 1009.1
20260904004555 25 133 14.5 25.7 0.00 0.00 0.00 86 1008.9
20260904003104 25 172 12.9 22.5 0.00 0.00 0.00 86 1008.8
20260904001553 27 137 16.1 30.6 0.00 0.00 0.00 82 1008.9
20260904000053 30 115 20.9 29.0 0.00 0.00 0.00 66 1008.8
20260903234553 31 151 12.9 29.0 0.00 0.00 0.00 61 1008.7
20260903233059 31 117 17.7 30.6 0.00 0.00 0.00 60 1008.4
20260903231552 31 121 17.7 29.0 0.00 0.00 0.00 62 1008.3
20260903230057 31 105 19.3 25.7 0.00 0.00 0.00 62 1008.3
20260903224551 31 98 16.1 25.7 0.00 0.00 0.00 62 1008.2
20260903223104 32 153 12.9 27.4 0.00 0.00 0.00 62 1008.4